User: anonymous   Login
Location: Los Gatos B&B
(42.6926°N, 77.0646°W)
Time: 18:12:31
(UTC-04:00)
Language:

SL-16 R/B - Orbit

View from above orbital plane
View from above orbital plane
View from above satellite
View from above satellite

Ground track
Ground track

The orbit data is extracted from the following two-line orbital elements,

1 28353U 04021B   16151.48244840  .00000235  00000-0  14797-3 0  9997
2 28353  70.9998 161.0451 0003424  41.9284 318.2099 14.14181541618056
Epoch (UTC): 30 May 2016 11:34:43
Eccentricity: 0.0003424
inclination: 70.9998°
perigee height: 842 km
apogee height: 847 km
right ascension of ascending node: 161.0451°
argument of perigee: 41.9284°
revolutions per day: 14.14181541
mean anomaly at epoch: 318.2099°
orbit number at epoch: 61805

The dashed part of the orbit path shows where the satellite is in the earth's shadow,  

DLR